When you browse on this site, cookies collect data to enhance your experience and personalize the content and advertising you see.
Visit our Privacy Policy to learn more. By continuing to use the site, you agree to this use of cookies and data.
  • In Hungary
  • List of Countries
  • For 7 days
  • Water Temperature
  • Satellite Maps
  • Weather Map
  • News
  • Weather Widgets
  • user-avatar
    Login

    Hourly Weather Medina del Campo

    Today, 20 November, Tuesday

    Time Temperature Precipitation Wind Pressure Humidity
    00:00 +8°C° 0 mm 3 mps 687 mmHg 90%
    01:00 +7°C° 0.1 mm 4 mps 687 mmHg 91%
    02:00 +7°C° 0.1 mm 4 mps 687 mmHg 91%
    03:00 +7°C° 0.1 mm 4 mps 687 mmHg 91%
    04:00 +7°C° 0.1 mm 5 mps 686 mmHg 91%
    05:00 +7°C° 0.1 mm 5 mps 686 mmHg 90%
    06:00 +7°C° 0 mm 5 mps 686 mmHg 89%
    07:00 +7°C° 0.1 mm 6 mps 686 mmHg 87%
    08:00 +6°C° 0.1 mm 7 mps 686 mmHg 85%
    09:00 +7°C° 0.1 mm 8 mps 686 mmHg 82%
    10:00 +7°C° 0.1 mm 8 mps 686 mmHg 76%
    11:00 +9°C° 0.1 mm 8 mps 687 mmHg 70%
    12:00 +10°C° 0.1 mm 8 mps 687 mmHg 64%
    13:00 +10°C° 0.1 mm 8 mps 687 mmHg 63%
    14:00 +10°C° 0.1 mm 8 mps 687 mmHg 63%
    15:00 +10°C° 0.1 mm 8 mps 687 mmHg 62%
    16:00 +9°C° 0.1 mm 7 mps 687 mmHg 68%
    17:00 +8°C° 0.1 mm 6 mps 687 mmHg 74%
    18:00 +7°C° 0.1 mm 5 mps 688 mmHg 79%
    19:00 +7°C° 0 mm 5 mps 688 mmHg 82%
    20:00 +6°C° 0 mm 5 mps 689 mmHg 84%
    21:00 +5°C° 0 mm 6 mps 689 mmHg 86%
    22:00 +6°C° 0 mm 5 mps 689 mmHg 86%
    23:00 +6°C° 0 mm 5 mps 690 mmHg 85%

    Tomorrow, 21 November, Wednesday

    Time Temperature Precipitation Wind Pressure Humidity
    00:00 +6°C° 0 mm 5 mps 690 mmHg 84%
    01:00 +6°C° 0.1 mm 5 mps 690 mmHg 84%
    02:00 +5°C° 0.1 mm 6 mps 690 mmHg 83%
    03:00 +7°C° 0.1 mm 6 mps 690 mmHg 83%
    04:00 +5°C° 0.1 mm 6 mps 690 mmHg 84%
    05:00 +5°C° 0.1 mm 6 mps 691 mmHg 84%
    06:00 +5°C° 0.1 mm 6 mps 691 mmHg 85%
    07:00 +5°C° 0 mm 6 mps 692 mmHg 82%
    08:00 +5°C° 0 mm 7 mps 692 mmHg 79%
    09:00 +6°C° 0 mm 7 mps 693 mmHg 76%
    10:00 +8°C° 0.1 mm 7 mps 693 mmHg 70%
    11:00 +9°C° 0.1 mm 7 mps 694 mmHg 65%
    12:00 +9°C° 0.1 mm 7 mps 694 mmHg 59%
    13:00 +10°C° 0.2 mm 7 mps 694 mmHg 58%
    14:00 +10°C° 0.2 mm 7 mps 694 mmHg 57%
    15:00 +10°C° 0.2 mm 7 mps 694 mmHg 56%
    16:00 +9°C° 0.1 mm 6 mps 694 mmHg 62%
    17:00 +8°C° 0.1 mm 5 mps 694 mmHg 68%
    18:00 +6°C° 0.1 mm 4 mps 695 mmHg 74%
    19:00 +7°C° 0.1 mm 3 mps 695 mmHg 76%
    20:00 +7°C° 0.1 mm 3 mps 696 mmHg 79%
    21:00 +7°C° 0.1 mm 3 mps 696 mmHg 81%
    22:00 +7°C° 0.1 mm 3 mps 696 mmHg 82%
    23:00 +5°C° 0.1 mm 3 mps 696 mmHg 84%

    Day after tomorrow, 22 November, Thursday

    Time Temperature Precipitation Wind Pressure Humidity
    00:00 +5°C° 0.1 mm 3 mps 697 mmHg 85%
    01:00 +5°C° 0 mm 3 mps 697 mmHg 86%
    02:00 +4°C° 0 mm 3 mps 697 mmHg 87%
    03:00 +4°C° 0 mm 3 mps 697 mmHg 88%
    04:00 +4°C° 0 mm 3 mps 697 mmHg 88%
    05:00 +4°C° 0 mm 3 mps 697 mmHg 89%
    06:00 +4°C° 0 mm 3 mps 697 mmHg 89%
    07:00 +4°C° 0 mm 3 mps 697 mmHg 86%
    08:00 +5°C° 0 mm 3 mps 698 mmHg 82%
    09:00 +7°C° 0 mm 3 mps 698 mmHg 78%
    10:00 +7°C° 0 mm 4 mps 698 mmHg 73%
    11:00 +8°C° 0 mm 4 mps 698 mmHg 67%
    12:00 +10°C° 0 mm 4 mps 698 mmHg 61%
    13:00 +10°C° 0.2 mm 4 mps 698 mmHg 62%
    14:00 +9°C° 0.2 mm 5 mps 697 mmHg 62%
    15:00 +9°C° 0.2 mm 5 mps 697 mmHg 63%
    16:00 +8°C° 0.3 mm 4 mps 697 mmHg 68%
    17:00 +8°C° 0.3 mm 4 mps 697 mmHg 73%
    18:00 +8°C° 0.3 mm 3 mps 697 mmHg 78%
    19:00 +8°C° 0.4 mm 3 mps 697 mmHg 79%
    20:00 +8°C° 0.4 mm 3 mps 698 mmHg 81%
    21:00 +7°C° 0.4 mm 3 mps 698 mmHg 82%
    22:00 +7°C° 0.4 mm 3 mps 698 mmHg 84%
    23:00 +7°C° 0.4 mm 3 mps 698 mmHg 85%

    23 November, Friday

    Time Temperature Precipitation Wind Pressure Humidity
    00:00 +7°C° 0.4 mm 3 mps 698 mmHg 86%
    01:00 +7°C° 0.1 mm 3 mps 697 mmHg 87%
    02:00 +6°C° 0.1 mm 2 mps 697 mmHg 88%
    03:00 +6°C° 0.1 mm 2 mps 697 mmHg 89%
    04:00 +6°C° 0 mm 2 mps 697 mmHg 89%
    05:00 +5°C° 0 mm 2 mps 697 mmHg 89%
    06:00 +5°C° 0 mm 2 mps 696 mmHg 90%
    07:00 +6°C° 0 mm 2 mps 697 mmHg 86%
    08:00 +5°C° 0 mm 3 mps 697 mmHg 83%
    09:00 +7°C° 0 mm 3 mps 697 mmHg 79%
    10:00 +7°C° 0 mm 4 mps 697 mmHg 72%
    11:00 +8°C° 0 mm 5 mps 697 mmHg 66%
    12:00 +9°C° 0 mm 6 mps 697 mmHg 59%
    13:00 +9°C° 0.2 mm 6 mps 696 mmHg 60%
    14:00 +8°C° 0.2 mm 7 mps 696 mmHg 62%
    15:00 +7°C° 0.2 mm 8 mps 696 mmHg 63%
    16:00 +6°C° 0.2 mm 7 mps 696 mmHg 68%
    17:00 +7°C° 0.2 mm 6 mps 696 mmHg 72%
    18:00 +5°C° 0.2 mm 6 mps 697 mmHg 77%
    19:00 +6°C° 0.1 mm 5 mps 697 mmHg 79%
    20:00 +6°C° 0.1 mm 5 mps 698 mmHg 82%
    21:00 +5°C° 0.1 mm 5 mps 698 mmHg 85%
    22:00 +5°C° 0 mm 5 mps 698 mmHg 86%
    23:00 +5°C° 0 mm 5 mps 698 mmHg 88%

    24 November, Saturday

    Time Temperature Precipitation Wind Pressure Humidity
    00:00 +4°C° 0 mm 4 mps 698 mmHg 89%
    01:00 +4°C° 0 mm 4 mps 698 mmHg 90%
    02:00 +4°C° 0 mm 4 mps 698 mmHg 91%
    03:00 +3°C° 0 mm 3 mps 698 mmHg 91%
    04:00 +3°C° 0 mm 3 mps 698 mmHg 91%
    05:00 +3°C° 0 mm 3 mps 698 mmHg 91%
    06:00 +4°C° 0 mm 2 mps 699 mmHg 90%
    07:00 +5°C° 0 mm 2 mps 699 mmHg 88%
    08:00 +4°C° 0 mm 3 mps 699 mmHg 85%
    09:00 +5°C° 0 mm 3 mps 700 mmHg 83%
    10:00 +7°C° 0 mm 3 mps 700 mmHg 78%
    11:00 +7°C° 0 mm 4 mps 700 mmHg 73%
    12:00 +8°C° 0 mm 4 mps 700 mmHg 68%
    13:00 +10°C° 0 mm 4 mps 699 mmHg 66%
    14:00 +10°C° 0 mm 3 mps 699 mmHg 65%
    15:00 +10°C° 0 mm 3 mps 698 mmHg 63%
    16:00 +10°C° 0 mm 3 mps 698 mmHg 68%
    17:00 +9°C° 0 mm 3 mps 698 mmHg 72%
    18:00 +8°C° 0 mm 3 mps 698 mmHg 76%
    19:00 +8°C° 0 mm 3 mps 698 mmHg 78%
    20:00 +8°C° 0 mm 3 mps 698 mmHg 80%
    21:00 +7°C° 0 mm 4 mps 698 mmHg 82%
    22:00 +7°C° 0.2 mm 4 mps 698 mmHg 83%
    23:00 +6°C° 0.2 mm 4 mps 698 mmHg 84%

    25 November, Sunday

    Time Temperature Precipitation Wind Pressure Humidity
    00:00 +6°C° 0.2 mm 4 mps 697 mmHg 85%
    01:00 +6°C° 0.8 mm 4 mps 697 mmHg 85%
    02:00 +6°C° 0.8 mm 4 mps 697 mmHg 86%
    03:00 +6°C° 0.8 mm 4 mps 696 mmHg 87%
    04:00 +7°C° 0.5 mm 4 mps 696 mmHg 87%
    05:00 +7°C° 0.5 mm 4 mps 696 mmHg 87%
    06:00 +7°C° 0.5 mm 4 mps 696 mmHg 87%
    07:00 +7°C° 0.1 mm 4 mps 697 mmHg 87%
    08:00 +8°C° 0.1 mm 4 mps 697 mmHg 86%
    09:00 +8°C° 0.1 mm 5 mps 697 mmHg 86%
    10:00 +9°C° 0.1 mm 5 mps 697 mmHg 82%
    11:00 +10°C° 0.1 mm 5 mps 697 mmHg 79%
    12:00 +10°C° 0.1 mm 5 mps 697 mmHg 76%
    13:00 +12°C° 0.1 mm 5 mps 697 mmHg 73%
    14:00 +12°C° 0.1 mm 5 mps 697 mmHg 71%
    15:00 +13°C° 0.1 mm 5 mps 697 mmHg 68%
    16:00 +12°C° 0.1 mm 4 mps 697 mmHg 74%
    17:00 +11°C° 0.1 mm 4 mps 697 mmHg 79%
    18:00 +10°C° 0.1 mm 3 mps 697 mmHg 85%
    19:00 +10°C° 0.1 mm 4 mps 697 mmHg 85%
    20:00 +10°C° 0.1 mm 4 mps 697 mmHg 85%
    21:00 +10°C° 0.1 mm 4 mps 697 mmHg 85%
    22:00 +8°C° 0.1 mm 4 mps 697 mmHg 86%
    23:00 +8°C° 0.1 mm 5 mps 697 mmHg 87%
    Show more